[[{"header":{"parameterUnit":"m.s-1","parameterCategory":1,"la1":30.2991,"la2":30.254,"lo1":-89.0895,"lo2":-89.0444,"dy":0.0017,"dx":0.0017,"nx":28,"ny":28,"refTime":"2025-04-18T03:00:00:Z","depth":0,"parameterNumber":2,"parameterNumberName":"U-component_of_WINDS"},"data":[0,0,0,0,0,0,0,0,0,0,0,0,0,0,0,0,0,0,0,0,0,0,0,0,0,0,0,0,0,0,0,0,0,0,0,0,0,0,0,0,0,0,0,0,0,0,0,0,0,0,0,0,0,0,0,0,0,0,0.174,0.174,0,0.1727,0.1727,0.1727,0.1716,0.1716,0.1716,0.1716,0.1702,0.1702,0.1702,0,0,0,0,0,0,0,0,0,0,0,0,0,0.1755,0.1755,0.174,0.174,0.174,0.1727,0.1727,0.1727,0.1716,0.1716,0.1716,0.1716,0.1702,0.1702,0.1702,0,0,0,0,0,0,0,0,0,0,0,0,0,0.1746,0.1755,0.174,0.1733,0.1732,0.1727,0.1727,0.1727,0.1716,0.1716,0.1716,0.1716,0.1702,0.1702,0.1702,0.1702,0,0,0.17,0.17,0,0,0,0,0,0,0,0,0.1746,0.1745,0.1734,0.1734,0.1733,0.1723,0.1727,0.1718,0.1716,0.1723,0.1716,0.1716,0.1709,0.1708,0.1706,0.1701,0.1701,0.17,0.17,0.17,0.17,0,0,0,0,0,0,0,0.1747,0.1746,0.1735,0.1734,0.1733,0.173,0.1729,0.1725,0.1717,0.1722,0.1721,0.172,0.1709,0.1707,0.1706,0.1701,0.17,0.17,0.17,0.1699,0.1694,0.1694,0,0,0,0,0,0,0.1749,0.1747,0.1735,0.1735,0.1739,0.173,0.1728,0.1726,0.1717,0.1715,0.172,0.1719,0.1707,0.1706,0.1705,0.1704,0.17,0.1699,0.1699,0.1694,0.1694,0.1694,0,0,0,0,0,0,0.1749,0.1748,0.1736,0.174,0.1739,0.173,0.1728,0.1726,0.1724,0.1715,0.1714,0.1719,0.1707,0.1706,0.1703,0.1704,0.1699,0.1699,0.1694,0.1694,0.1694,0.1703,0,0,0,0,0,0,0.175,0.1748,0.1749,0.174,0.1738,0.1734,0.1728,0.1726,0.1723,0.1722,0.1714,0.1713,0.1707,0.1703,0.1702,0.1703,0.1698,0.1694,0.1694,0.1694,0.1702,0.1703,0.1704,0,0,0,0,0,0.175,0.1752,0.1749,0.1748,0.1739,0.1734,0.1733,0.1726,0.1724,0.1724,0.1718,0.1713,0.1704,0.1703,0.1702,0.1702,0.1693,0.1694,0.1694,0.1702,0.1703,0.1704,0,0,0,0,0,0,0.1761,0.1751,0.1747,0.1746,0.1741,0.1732,0.1732,0.1728,0.1723,0.1723,0.1714,0.1713,0.171,0.1706,0.1705,0.1701,0.1698,0.1698,0.1704,0.1705,0.1706,0.1707,0.1698,0,0,0,0,0,0.1763,0.176,0.1752,0.1751,0.1749,0.1741,0.1739,0.1734,0.1728,0.1726,0.172,0.1715,0.171,0.1708,0.1703,0.1702,0.1699,0.1701,0.1702,0.1703,0.1703,0.17,0.1701,0.1695,0.1695,0.1695,0,0,0.1767,0.1762,0.176,0.1753,0.1749,0.1746,0.1739,0.1737,0.1734,0.1726,0.1722,0.1717,0.171,0.1708,0.1706,0.1704,0.1704,0.1703,0.1704,0.1703,0.1701,0.1701,0.1702,0.1695,0.1695,0.1695,0,0,0.1774,0.177,0.1768,0.1764,0.1757,0.1751,0.1751,0.1743,0.1739,0.1736,0.1729,0.1725,0.1719,0.1713,0.171,0.1713,0.1708,0.1712,0.1716,0.1714,0.1714,0.1715,0.1715,0.1716,0.1712,0.1712,0.1712,0,0.178,0.1776,0.1768,0.1766,0.1762,0.1754,0.1753,0.1749,0.1741,0.1738,0.1736,0.1726,0.1721,0.1716,0.1717,0.1715,0.1714,0.1713,0.1715,0.1715,0.1716,0.1716,0.1716,0.1713,0.1712,0.1712,0.1712,0,0.1783,0.178,0.178,0.1772,0.1769,0.1767,0.1758,0.1756,0.1751,0.1746,0.1741,0.1735,0.1728,0.1727,0.1722,0.1721,0.172,0.1717,0.1713,0.1717,0.1717,0.1717,0.1713,0.1713,0.1713,0.1713,0,0,0.1796,0.1784,0.1784,0.178,0.1771,0.1768,0.1765,0.1759,0.1756,0.1751,0.1748,0.1741,0.1737,0.1734,0.1728,0.1726,0.1728,0.1723,0.1723,0.1724,0.1726,0.1728,0.1728,0.1725,0.1725,0.1725,0.1726,0,0.1801,0.1795,0.1788,0.1785,0.1781,0.1773,0.177,0.1764,0.1759,0.1755,0.1749,0.1744,0.174,0.1737,0.1735,0.1729,0.1728,0.1728,0.1721,0.1721,0.1723,0.1729,0.1731,0.1733,0.1726,0.1726,0.1726,0,0.1805,0.18,0.1796,0.1787,0.1785,0.1783,0.1776,0.1772,0.1765,0.1761,0.1756,0.175,0.1746,0.1742,0.1736,0.1736,0.1732,0.1729,0.1728,0.1727,0.1724,0.1727,0.1733,0.1733,0.1726,0.1726,0.1726,0,0.1814,0.1806,0.1802,0.1799,0.1789,0.1787,0.1782,0.1775,0.1771,0.1765,0.1762,0.1756,0.1752,0.1747,0.1739,0.1737,0.1733,0.1729,0.1729,0.1729,0.1728,0.1728,0.1733,0.1727,0.1727,0.1727,0.1727,0,0.182,0.1818,0.1806,0.1804,0.1801,0.1793,0.179,0.1784,0.1777,0.1774,0.1766,0.1763,0.1753,0.1748,0.1742,0.1737,0.1735,0.1731,0.173,0.1732,0.1732,0.1729,0.1729,0.1727,0.1727,0.1727,0.1727,0,0.1829,0.1822,0.1817,0.1807,0.1804,0.1802,0.1793,0.1791,0.1785,0.178,0.1778,0.1768,0.1762,0.1754,0.1745,0.174,0.1736,0.1734,0.1739,0.1737,0.1738,0.1738,0.1741,0.1741,0.1734,0.1734,0.1735,0,0.1833,0.1831,0.1821,0.1817,0.1813,0.1808,0.1804,0.1796,0.1792,0.1783,0.1781,0.1774,0.1768,0.1758,0.175,0.1742,0.174,0.1741,0.1738,0.174,0.1739,0.1739,0.1738,0.1742,0.1742,0.1742,0.1742,0,0.184,0.1836,0.1831,0.1824,0.182,0.1814,0.1808,0.1805,0.1795,0.1791,0.1784,0.178,0.177,0.1763,0.1755,0.175,0.1744,0.1743,0.1742,0.1745,0.1747,0.1745,0.174,0.1743,0.1743,0.1743,0.1743,0.1743,0.1846,0.1844,0.1836,0.183,0.1824,0.1819,0.1815,0.1808,0.1803,0.1795,0.179,0.1783,0.1775,0.1763,0.1758,0.1752,0.175,0.1749,0.1749,0.1749,0.1749,0.1748,0.175,0.175,0.175,0.175,0.175,0,0.1853,0.1847,0.1842,0.1833,0.1828,0.1823,0.1816,0.1812,0.1806,0.1799,0.1793,0.1785,0.1778,0.1769,0.1761,0.1758,0.1755,0.1756,0.1756,0.1755,0.1752,0.1753,0.1759,0.1759,0.1759,0.1759,0.1759,0.1759,0.1855,0.1851,0.1846,0.1838,0.1832,0.1826,0.1822,0.1816,0.181,0.1801,0.1795,0.179,0.1782,0.1773,0.1766,0.1763,0.1761,0.1762,0.1759,0.1756,0.1755,0.1755,0.1756,0.1762,0.1762,0.1762,0.1762,0.1762]},{"header":{"parameterUnit":"m.s-1","parameterCategory":1,"la1":30.2991,"la2":30.254,"lo1":-89.0895,"lo2":-89.0444,"dy":0.0017,"dx":0.0017,"nx":28,"ny":28,"refTime":"2025-04-18T03:00:00:Z","depth":0,"parameterNumber":3,"parameterNumberName":"V-component_of_WINDS"},"data":[0,0,0,0,0,0,0,0,0,0,0,0,0,0,0,0,0,0,0,0,0,0,0,0,0,0,0,0,0,0,0,0,0,0,0,0,0,0,0,0,0,0,0,0,0,0,0,0,0,0,0,0,0,0,0,0,0,0,5.9302,5.9304,0,5.9439,5.9441,5.9442,5.9407,5.9404,5.9402,5.9399,5.9532,5.9538,5.9544,0,0,0,0,0,0,0,0,0,0,0,0,0,5.9002,5.9008,5.9302,5.9304,5.9306,5.9439,5.9441,5.9443,5.9407,5.9404,5.9401,5.9398,5.953,5.9538,5.9545,0,0,0,0,0,0,0,0,0,0,0,0,0,5.9135,5.901,5.9302,5.9304,5.9306,5.9439,5.9441,5.9443,5.9408,5.9404,5.94,5.9396,5.9528,5.9537,5.9546,5.9682,0,0,5.9574,5.9577,0,0,0,0,0,0,0,0,5.9128,5.9146,5.9302,5.9304,5.9306,5.9402,5.9384,5.9523,5.9409,5.9369,5.9399,5.9394,5.9492,5.9504,5.9538,5.9689,5.9694,5.9574,5.958,5.9584,5.9586,0,0,0,0,0,0,0,5.9118,5.914,5.9356,5.9304,5.9307,5.9296,5.931,5.941,5.9451,5.9372,5.937,5.9387,5.9492,5.9529,5.9541,5.9696,5.9574,5.9582,5.9588,5.9591,5.9963,5.9967,0,0,0,0,0,0,5.9109,5.9133,5.9352,5.936,5.9205,5.9305,5.9321,5.9375,5.945,5.9458,5.939,5.9385,5.9516,5.953,5.9545,5.9708,5.9584,5.9592,5.9597,5.9959,5.9964,5.9969,0,0,0,0,0,0,5.9102,5.9129,5.9346,5.9246,5.9273,5.9314,5.9376,5.938,5.9417,5.9464,5.947,5.9421,5.9513,5.9533,5.9648,5.9713,5.9596,5.9605,5.9953,5.996,5.9966,6.0037,0,0,0,0,0,0,5.9094,5.9127,5.9181,5.9248,5.9278,5.945,5.938,5.9386,5.9434,5.9428,5.9495,5.9502,5.9511,5.9635,5.9658,5.9723,5.9612,5.9948,5.9957,5.9964,6.0029,6.0045,6.0059,0,0,0,0,0,5.9083,5.9194,5.9184,5.921,5.9348,5.9454,5.9471,5.9482,5.9439,5.9493,5.9522,5.9499,5.9702,5.9647,5.9672,5.9741,5.9944,5.9954,5.9964,6.0022,6.0042,6.0059,0,0,0,0,0,0,5.9132,5.9203,5.9192,5.9329,5.9386,5.9448,5.9516,5.9503,5.9571,5.9563,5.9571,5.9587,5.9705,5.9735,5.9672,5.9876,5.9816,5.9832,5.9852,5.9871,5.9886,5.9876,5.9619,0,0,0,0,0,5.9159,5.9242,5.9298,5.9413,5.9442,5.9474,5.9521,5.9525,5.9583,5.9606,5.9644,5.97,5.9775,5.9825,5.9898,6.0033,6.0046,6.0093,6.0108,6.012,6.0133,6.0204,6.0225,6.0002,6.0001,6.0001,0,0,5.9215,5.9264,5.9315,5.9424,5.9469,5.9551,5.9495,5.9585,5.9645,5.9619,5.9731,5.9761,5.9823,5.9949,6.0006,5.9977,6.0197,6.0133,6.0142,6.0148,6.0216,6.0237,6.0256,6.0008,6.0007,6.0006,0,0,5.9359,5.9405,5.9505,5.9551,5.962,5.964,5.9664,5.9728,5.9747,5.986,5.9842,5.9912,6.0044,6.0088,6.0128,6.0287,6.0268,6.0311,6.0388,6.0458,6.0475,6.0491,6.0545,6.0565,6.0323,6.0324,6.0324,0,5.9419,5.9545,5.9557,5.965,5.9696,5.9678,5.9778,5.9821,5.9909,5.994,5.9908,6.0071,6.0112,6.0247,6.0286,6.0319,6.0344,6.0303,6.0472,6.0488,6.0502,6.0555,6.0575,6.0328,6.0328,6.0327,6.0327,0,5.9614,5.9702,5.9774,5.9861,5.9916,6.0012,6.0035,6.0089,6.0088,6.0111,6.0224,6.0273,6.0354,6.0386,6.0385,6.052,6.05,6.047,6.041,6.0528,6.0577,6.0597,6.0335,6.0333,6.0332,6.0331,0,0,5.9792,5.9885,5.9911,5.995,6.0024,6.009,6.0183,6.0265,6.031,6.0371,6.0447,6.0558,6.053,6.0575,6.0579,6.064,6.076,6.0602,6.0603,6.0628,6.0909,6.093,6.0954,6.0748,6.0752,6.0755,6.0903,0,5.9941,6.0108,6.0121,6.0269,6.0349,6.0332,6.0412,6.0465,6.0489,6.0557,6.0582,6.066,6.0619,6.0645,6.0705,6.0733,6.0816,6.0723,6.0816,6.082,6.08,6.098,6.1003,6.114,6.0923,6.0926,6.0928,0,6.0137,6.0206,6.0363,6.0424,6.0458,6.0531,6.0605,6.0672,6.073,6.0742,6.0793,6.0788,6.088,6.0818,6.0943,6.0879,6.0918,6.0937,6.0943,6.0951,6.088,6.099,6.1184,6.1204,6.0959,6.0957,6.0954,0,6.0249,6.038,6.0491,6.0524,6.0599,6.065,6.0683,6.0738,6.0785,6.0849,6.0879,6.0953,6.0993,6.1049,6.1062,6.1016,6.1187,6.1126,6.1197,6.1197,6.1233,6.123,6.1434,6.1261,6.1261,6.1261,6.126,0,6.0412,6.0509,6.0542,6.0609,6.0716,6.0728,6.0832,6.0862,6.091,6.0981,6.0971,6.1037,6.1052,6.1121,6.1132,6.1233,6.1251,6.1262,6.1263,6.1262,6.126,6.1286,6.1276,6.1266,6.1265,6.1264,6.1263,0,6.0555,6.0581,6.07,6.0761,6.0779,6.0854,6.0905,6.0969,6.0991,6.1081,6.1102,6.1136,6.1216,6.1236,6.1331,6.1338,6.1457,6.145,6.1438,6.1437,6.1506,6.1499,6.1733,6.1763,6.1572,6.1574,6.1575,0,6.0657,6.0731,6.08,6.0848,6.0884,6.0961,6.101,6.1024,6.1075,6.1146,6.12,6.1279,6.1343,6.1471,6.1502,6.1574,6.1568,6.1645,6.1578,6.1574,6.1567,6.1561,6.1568,6.1657,6.1659,6.1661,6.1662,0,6.0834,6.0844,6.0915,6.0992,6.105,6.111,6.1168,6.1207,6.1229,6.1286,6.1368,6.1418,6.1515,6.1593,6.1665,6.1696,6.1682,6.1683,6.1703,6.1702,6.1691,6.1696,6.147,6.1677,6.1676,6.1675,6.1674,6.1673,6.0958,6.1023,6.1081,6.1161,6.1206,6.1259,6.1322,6.1352,6.1422,6.1504,6.1507,6.1597,6.165,6.1746,6.1781,6.1849,6.1825,6.1855,6.1862,6.1868,6.1874,6.1682,6.1863,6.1862,6.1862,6.1861,6.1861,0,6.1134,6.1171,6.1244,6.1325,6.1387,6.1371,6.1433,6.1485,6.1565,6.1617,6.1681,6.1774,6.1849,6.1886,6.196,6.2007,6.2002,6.2026,6.2021,6.2028,6.1892,6.1866,6.2028,6.2028,6.2028,6.2028,6.2028,6.2028,6.1232,6.1339,6.1355,6.1483,6.1519,6.1608,6.1644,6.1692,6.1734,6.184,6.1903,6.1928,6.1973,6.205,6.2117,6.2126,6.2152,6.2179,6.2184,6.2055,6.2038,6.2022,6.1998,6.2185,6.2185,6.2314,6.2316,6.2316]}]]